Date,TemperatureHighF,TemperatureAvgF,TemperatureLowF,DewpointHighF,DewpointAvgF,DewpointLowF,HumidityHigh,HumidityAvg,HumidityLow,PressureMaxIn,PressureMinIn,WindSpeedMaxMPH,WindSpeedAvgMPH,GustSpeedMaxMPH,PrecipitationSumIn
2013-1-1,35.0,25.6,19.0,27.0,18.7,14.0,84,75,65,24.32,24.32,20,12,23,0.00
2013-1-2,36.0,24.0,11.0,20.0,14.8,7.0,85,68,49,24.32,24.32,15,7,20,0.00
2013-1-3,35.0,24.3,9.0,17.0,12.3,6.0,87,61,47,0.00,40.00,21,13,29,0.00
2013-1-4,42.0,30.9,21.0,19.0,15.2,11.0,70,52,40,24.32,24.32,23,8,25,0.00
2013-1-5,40.0,26.5,17.0,22.0,16.9,11.0,84,68,48,24.32,24.32,16,6,20,0.00
2013-1-6,41.0,30.4,15.0,21.0,17.4,11.0,86,60,43,0.00,40.00,20,9,24,0.00
2013-1-7,44.0,32.6,20.0,26.0,21.7,15.0,83,65,47,24.32,24.32,13,3,13,0.00
2013-1-8,49.0,40.0,27.0,27.0,23.5,19.0,77,53,31,0.00,40.00,25,9,37,0.00
2013-1-9,56.0,43.2,26.0,30.0,26.3,20.0,80,53,31,24.32,24.32,18,8,23,0.00
2013-1-10,51.0,33.8,21.0,33.0,25.2,16.0,89,72,43,24.32,24.32,18,7,22,0.00
2013-1-11,21.0,13.0,8.0,16.0,10.5,6.0,94,89,79,24.32,24.32,12,4,14,0.03
2013-1-12,18.0,9.4,-2.0,11.0,6.0,-4.0,93,87,74,24.32,24.32,13,4,15,0.01
2013-1-13,18.0,10.6,4.0,10.0,5.7,1.0,89,80,69,24.32,24.32,15,9,18,0.00
2013-1-14,18.0,12.8,7.0,10.0,5.8,2.0,82,74,65,24.32,24.32,21,14,30,0.00
2013-1-15,28.0,23.3,18.0,21.0,17.3,10.0,88,78,71,24.32,24.32,22,16,31,0.00
2013-1-16,41.0,31.2,25.0,27.0,21.2,18.0,75,67,55,24.32,24.32,20,12,24,0.00
2013-1-17,41.0,32.8,25.0,26.0,21.8,18.0,77,64,53,24.32,24.32,21,12,24,0.00
2013-1-18,52.0,39.3,33.0,27.0,23.5,21.0,68,54,35,0.00,40.00,18,10,23,0.00
2013-1-19,43.0,33.1,22.0,30.0,24.2,19.0,95,71,42,24.32,24.32,12,5,16,0.00
2013-1-20,34.0,23.9,17.0,24.0,18.7,13.0,90,81,65,24.32,24.32,14,6,16,0.00
2013-1-21,31.0,21.2,13.0,22.0,16.1,10.0,90,81,67,0.00,40.00,9,3,10,0.00
2013-1-22,47.0,29.0,13.0,28.0,19.2,11.0,94,70,41,24.32,24.32,13,4,17,0.00
2013-1-23,31.0,23.7,18.0,22.0,18.2,15.0,87,79,70,0.00,40.00,12,4,15,0.00
2013-1-24,55.0,35.7,20.0,32.0,24.2,17.0,88,66,40,24.32,24.32,16,4,28,0.00
2013-1-25,53.0,34.3,20.0,32.0,25.7,18.0,95,73,44,24.32,24.32,14,3,17,0.00
2013-1-26,59.0,41.5,30.0,34.0,29.9,26.0,86,66,38,24.32,24.32,12,2,15,0.00
2013-1-27,36.0,31.9,28.0,35.0,30.2,25.0,97,94,86,24.32,24.32,9,2,10,0.11
2013-1-28,40.0,29.8,22.0,29.0,24.1,17.0,97,81,43,24.32,24.32,17,4,21,0.02
2013-1-29,29.0,20.7,7.0,23.0,14.2,3.0,87,76,60,24.32,24.32,13,7,20,0.00
2013-1-30,32.0,23.4,9.0,29.0,19.8,6.0,97,87,74,24.32,24.32,16,6,22,0.13
2013-1-31,29.0,18.2,5.0,25.0,14.6,3.0,92,86,81,24.32,24.32,15,4,21,0.09
2013-2-1,46.0,37.2,29.0,35.0,29.1,24.0,84,73,53,24.32,24.32,15,7,23,0.01
2013-2-2,47.0,34.5,23.0,32.0,26.1,20.0,90,72,51,24.32,24.32,17,9,21,0.00
2013-2-3,51.0,37.6,31.0,30.0,26.0,23.0,75,63,36,24.32,24.32,20,10,25,0.00
2013-2-4,52.0,39.8,29.0,31.0,27.3,24.0,85,63,37,24.32,24.32,25,7,30,0.00
2013-2-5,52.0,39.1,29.0,34.0,28.8,25.0,87,67,46,0.00,40.00,14,5,15,0.00
2013-2-6,51.0,38.8,28.0,31.0,24.6,21.0,88,59,32,24.32,24.32,20,6,28,0.00
2013-2-7,45.0,32.5,20.0,27.0,23.3,19.0,95,71,45,24.32,24.32,6,2,8,0.00
2013-2-8,45.0,32.4,25.0,27.0,24.7,22.0,92,75,44,24.32,24.32,8,1,9,0.00
2013-2-9,42.0,30.6,19.0,31.0,24.8,18.0,96,80,54,24.32,24.32,9,2,12,0.00
2013-2-10,32.0,27.2,17.0,31.0,23.1,15.0,96,85,65,24.32,24.32,17,6,25,0.04
2013-2-11,32.0,21.5,8.0,20.0,14.8,6.0,96,76,59,24.32,24.32,18,11,25,0.01
2013-2-12,41.0,29.3,21.0,24.0,17.5,13.0,74,62,48,24.32,24.32,18,13,23,0.00
2013-2-13,51.0,36.6,30.0,36.0,26.3,18.0,96,67,41,24.32,24.32,30,12,39,0.05
2013-2-14,34.0,29.6,27.0,29.0,24.0,19.0,96,80,58,24.32,24.32,16,9,20,0.08
2013-2-15,44.0,31.7,25.0,33.0,26.4,24.0,96,82,56,24.32,24.32,16,7,23,0.06
2013-2-16,52.0,38.6,30.0,31.0,26.2,22.0,76,62,44,24.32,24.32,18,10,25,0.00
2013-2-17,46.0,37.8,32.0,33.0,27.4,22.0,81,67,39,24.32,24.32,24,10,31,0.00
2013-2-18,36.0,29.7,22.0,28.0,23.8,17.0,96,79,61,24.32,24.32,9,4,12,0.04
2013-2-19,32.0,23.4,17.0,24.0,18.8,15.0,94,83,63,24.32,24.32,9,3,12,0.01
2013-2-20,33.0,25.4,18.0,23.0,20.2,17.0,95,81,64,24.32,24.32,9,3,13,0.00
2013-2-21,41.0,29.0,22.0,30.0,23.9,20.0,96,82,53,24.32,24.32,9,2,12,0.03
2013-2-22,43.0,32.3,25.0,23.0,20.9,19.0,83,64,37,24.32,24.32,17,10,21,0.01
2013-2-23,40.0,33.8,27.0,34.0,25.9,19.0,97,74,50,24.32,24.32,15,5,21,0.03
2013-2-24,44.0,33.9,24.0,28.0,22.6,19.0,82,65,43,24.32,24.32,13,6,15,0.01
2013-2-25,47.0,36.0,24.0,26.0,20.9,17.0,81,56,35,24.32,24.32,21,10,25,0.00
2013-2-26,47.0,37.0,31.0,26.0,21.8,19.0,76,55,33,24.32,24.32,17,8,18,0.00
2013-2-27,46.0,33.4,20.0,24.0,20.3,16.0,85,62,34,24.32,24.32,14,6,18,0.00
2013-2-28,51.0,37.8,28.0,26.0,21.4,18.0,70,52,33,24.32,24.32,15,8,22,0.00
2013-3-1,61.0,43.7,28.0,34.0,27.6,20.0,80,55,35,24.32,24.32,24,10,31,0.00
2013-3-2,61.0,47.6,40.0,34.0,32.0,29.0,75,56,34,24.32,24.32,18,8,23,0.00
2013-3-3,54.0,37.9,29.0,36.0,29.4,17.0,97,73,48,24.32,24.32,33,5,46,0.18
2013-3-4,34.0,25.3,17.0,20.0,15.7,13.0,85,67,49,24.32,24.32,26,13,35,0.02
2013-3-5,33.0,22.5,11.0,25.0,17.4,9.0,93,81,66,24.32,24.32,9,4,10,0.00
2013-3-6,37.0,27.8,17.0,28.0,23.3,16.0,96,83,66,24.32,24.32,8,2,10,0.00
2013-3-7,57.0,39.5,26.0,32.0,26.8,17.0,92,66,21,24.32,24.32,13,5,15,0.00
2013-3-8,47.0,37.3,28.0,32.0,29.2,25.0,91,74,54,24.32,24.32,8,2,10,0.00
2013-3-9,50.0,35.5,23.0,29.0,23.2,20.0,96,65,34,24.32,24.32,24,6,29,0.00
2013-3-10,59.0,38.5,19.0,28.0,21.2,16.0,91,57,22,24.32,24.32,15,5,18,0.00
2013-3-11,49.0,40.5,33.0,31.0,25.2,19.0,67,55,35,24.32,24.32,25,8,36,0.00
2013-3-12,51.0,35.0,22.0,27.0,24.5,20.0,95,69,37,24.32,24.32,12,4,16,0.00
2013-3-13,69.0,49.2,30.0,32.0,28.2,24.0,81,49,23,24.32,24.32,26,8,33,0.00
2013-3-14,68.0,53.2,34.0,35.0,31.8,28.0,79,48,23,0.00,40.00,20,4,24,0.00
2013-3-15,68.0,53.0,38.0,33.0,29.9,23.0,74,45,19,24.32,24.32,23,9,33,0.00
2013-3-16,53.0,37.8,28.0,33.0,29.5,25.0,92,74,46,24.32,24.32,14,6,18,0.00
2013-3-17,43.0,35.0,25.0,33.0,22.9,13.0,93,64,30,24.32,24.32,29,11,47,0.00
2013-3-18,45.0,29.8,18.0,22.0,15.6,11.0,87,59,26,24.32,24.32,26,7,35,0.00
2013-3-19,39.0,30.8,26.0,25.0,21.8,19.0,93,70,49,24.32,24.32,12,4,14,0.00
2013-3-20,60.0,35.6,18.0,27.0,21.4,15.0,92,62,27,24.32,24.32,8,2,10,0.00
2013-3-21,49.0,40.9,31.0,34.0,23.2,14.0,85,53,24,24.32,24.32,21,9,25,0.00
2013-3-22,37.0,27.5,20.0,30.0,19.9,13.0,94,73,52,24.32,24.32,13,5,17,0.04
2013-3-23,38.0,25.7,15.0,17.0,12.6,8.0,90,61,30,24.32,24.32,16,6,23,0.01
2013-3-24,36.0,23.1,12.0,15.0,12.9,9.0,91,67,36,24.32,24.32,12,3,17,0.00
2013-3-25,50.0,27.4,10.0,20.0,12.8,6.0,88,60,24,0.00,40.00,12,3,14,0.00
2013-3-26,55.0,39.2,24.0,27.0,20.0,15.0,75,49,28,24.32,24.32,10,4,14,0.00
2013-3-27,64.0,44.7,24.0,29.0,23.0,18.0,78,46,20,24.32,24.32,13,4,15,0.00
2013-3-28,68.0,49.0,31.0,32.0,27.7,22.0,74,48,23,24.32,24.32,9,3,14,0.00
2013-3-29,63.0,49.0,39.0,43.0,33.4,26.0,86,57,35,24.32,24.32,13,5,17,0.00
2013-3-30,61.0,51.1,42.0,42.0,31.0,-99.9,88,52,26,24.32,24.32,18,8,24,0.00
2013-3-31,61.0,45.8,28.0,32.0,27.2,22.0,77,51,30,24.32,24.32,17,6,25,0.00
2013-4-1,58.0,43.3,25.0,31.0,26.5,21.0,85,55,30,24.32,24.32,12,4,18,0.00
2013-4-2,71.0,48.2,27.0,31.0,26.1,21.0,80,48,17,24.32,24.32,9,3,10,0.00
2013-4-3,68.0,54.3,42.0,36.0,31.1,26.0,62,43,26,24.32,24.32,17,7,21,0.00
2013-4-4,58.0,47.3,36.0,36.0,32.8,29.0,80,58,41,24.32,24.32,14,6,18,0.00
2013-4-5,62.0,51.8,43.0,48.0,37.4,33.0,82,59,38,24.32,24.32,20,6,23,0.06
2013-4-6,64.0,50.8,37.0,41.0,34.9,31.0,80,57,30,24.32,24.32,21,7,25,0.01
2013-4-7,63.0,48.6,37.0,45.0,39.7,34.0,96,73,37,24.32,24.32,17,4,21,0.41
2013-4-8,36.0,25.0,21.0,35.0,23.4,19.0,96,93,87,24.32,24.32,17,8,20,0.51
2013-4-9,30.0,24.4,20.0,21.0,18.5,16.0,95,78,57,24.32,24.32,6,2,8,0.04
2013-4-10,52.0,31.8,16.0,33.0,22.5,13.0,91,71,43,24.32,24.32,12,3,15,0.00
2013-4-11,59.0,47.6,36.0,38.0,32.9,25.0,78,58,37,24.32,24.32,23,11,30,0.00
2013-4-12,54.0,44.0,36.0,38.0,30.2,23.0,89,61,31,24.32,24.32,16,7,25,0.00
2013-4-13,52.0,40.5,37.0,39.0,32.3,24.0,95,74,53,24.32,24.32,23,6,30,0.15
2013-4-14,40.0,33.9,25.0,32.0,25.4,22.0,92,72,55,24.32,24.32,23,12,29,0.03
2013-4-15,35.0,27.8,21.0,28.0,22.8,19.0,94,82,62,24.32,24.32,10,3,14,0.00
2013-4-16,32.0,27.5,22.0,27.0,23.7,21.0,96,86,68,24.32,24.32,13,5,16,0.00
2013-4-17,35.0,28.0,18.0,29.0,23.4,17.0,96,84,58,24.32,24.32,14,3,17,0.01
2013-4-18,54.0,37.3,19.0,30.0,24.1,18.0,96,65,31,24.32,24.32,20,7,24,0.01
2013-4-19,60.0,46.9,35.0,44.0,32.8,27.0,93,60,37,24.32,24.32,16,7,23,0.12
2013-4-20,63.0,50.2,39.0,43.0,36.6,29.0,89,63,28,24.32,24.32,28,9,33,0.14
2013-4-21,49.0,34.8,28.0,37.0,31.2,27.0,98,87,63,24.32,24.32,13,8,18,0.06
2013-4-22,37.0,29.5,25.0,28.0,24.6,21.0,96,82,58,24.32,24.32,13,4,16,0.04
2013-4-23,52.0,36.0,21.0,32.0,22.0,16.0,88,61,24,24.32,24.32,17,9,22,0.00
2013-4-24,60.0,45.6,34.0,35.0,29.4,24.0,95,58,26,24.32,24.32,20,9,24,0.00
2013-4-25,70.0,55.7,36.0,34.0,26.8,20.0,73,37,17,0.00,40.00,22,8,28,0.00
2013-4-26,75.0,60.7,41.0,36.0,30.7,23.0,71,37,16,0.00,40.00,20,7,22,0.00
2013-4-27,77.0,64.4,46.0,35.0,30.1,23.0,62,32,14,0.00,40.00,25,10,30,0.00
2013-4-28,68.0,60.8,53.0,42.0,35.7,29.0,64,40,27,0.00,40.00,13,5,16,0.00
2013-4-29,67.0,52.8,45.0,43.0,35.9,19.0,78,55,26,24.32,24.32,26,10,37,0.00
2013-4-30,49.0,42.0,34.0,31.0,22.9,18.0,63,47,33,24.32,24.32,22,12,26,0.00
2013-5-1,52.0,39.5,29.0,27.0,22.7,17.0,77,54,27,27.20,24.32,9,3,12,0.00
2013-5-2,66.0,48.6,30.0,31.0,24.7,19.0,82,45,18,27.24,27.17,15,6,18,0.00
2013-5-3,67.0,54.8,37.0,45.0,32.0,25.0,87,45,25,27.17,27.17,14,7,17,0.00
2013-5-4,59.0,51.4,43.0,46.0,42.7,37.0,91,74,50,27.17,27.17,16,4,21,0.00
2013-5-5,68.0,52.1,34.0,42.0,36.1,32.0,96,61,29,27.17,27.17,12,4,17,0.00
2013-5-6,75.0,59.8,39.0,40.0,35.6,32.0,82,44,22,27.17,27.17,9,4,12,0.00
2013-5-7,80.0,63.8,42.0,41.0,35.7,29.0,80,41,18,27.17,27.17,14,4,18,0.00
2013-5-8,72.0,61.4,46.0,43.0,40.8,35.0,74,48,33,27.17,27.17,13,5,14,0.00
2013-5-9,75.0,60.2,42.0,46.0,41.7,38.0,86,54,28,27.17,27.17,14,4,16,0.00
2013-5-10,71.0,59.0,45.0,44.0,36.4,-99.9,80,48,27,27.17,27.17,20,8,25,0.00
2013-5-11,80.0,61.1,38.0,43.0,33.2,-99.9,74,39,22,27.17,27.17,10,3,13,0.00
2013-5-12,90.0,73.5,56.0,46.0,39.3,29.0,56,33,12,27.17,27.17,21,8,23,0.00
2013-5-13,92.0,75.8,58.0,49.0,40.3,30.0,64,33,11,27.17,27.17,21,6,24,0.00
2013-5-14,80.0,69.6,56.0,48.0,38.5,30.0,73,36,18,27.17,27.17,18,6,25,0.00
2013-5-15,75.0,64.0,46.0,42.0,33.4,27.0,63,33,23,27.17,27.17,12,4,16,0.00
2013-5-16,70.0,57.0,56.0,55.0,34.7,-99.9,93,69,45,27.17,27.17,22,6,25,0.34
2013-5-17,61.0,56.0,53.0,57.0,49.7,-99.9,96,88,78,27.17,27.17,7,3,10,0.15
2013-5-18,59.0,55.3,53.0,55.0,52.8,50.0,96,91,78,27.17,27.17,9,2,10,0.54
2013-5-19,54.0,53.0,52.0,53.0,51.0,49.0,96,93,89,27.17,27.17,16,6,24,0.90
2013-5-20,67.0,57.7,51.0,50.0,45.3,30.0,95,67,27,27.17,27.17,16,8,23,0.27
2013-5-21,68.0,55.7,42.0,46.0,41.8,34.0,96,65,32,27.17,27.17,16,5,21,0.00
2013-5-22,68.0,55.8,47.0,50.0,46.0,44.0,90,71,48,27.17,27.17,22,12,28,0.00
2013-5-23,72.0,60.5,53.0,56.0,49.1,46.0,91,68,47,27.17,27.17,17,10,23,0.32
2013-5-24,74.0,61.8,52.0,53.0,41.6,32.0,93,53,22,27.17,27.17,16,7,21,0.35
2013-5-25,77.0,63.1,45.0,46.0,42.8,40.0,86,51,29,27.17,27.17,13,4,18,0.01
2013-5-26,75.0,62.5,50.0,59.0,50.1,-5.0,83,65,6,27.17,27.17,16,3,25,0.23
2013-5-27,68.0,58.3,52.0,54.0,49.3,45.0,90,73,48,27.17,27.17,24,4,28,0.11
2013-5-28,73.0,59.3,47.0,53.0,47.8,45.0,95,70,39,27.17,27.17,10,3,15,0.03
2013-5-29,57.0,54.5,53.0,55.0,52.7,51.0,97,93,85,27.17,27.17,13,3,15,1.77
2013-5-30,56.0,53.1,51.0,52.0,49.3,45.0,96,87,71,27.17,27.17,23,10,32,0.26
2013-5-31,57.0,52.4,49.0,48.0,44.5,42.0,90,75,62,27.17,27.17,24,14,33,0.12
2013-6-1,69.0,58.9,48.0,50.0,46.0,43.0,90,65,40,27.17,27.17,8,3,13,0.09
2013-6-2,77.0,64.5,53.0,55.0,49.8,47.0,87,61,37,27.17,27.17,14,5,21,0.00
2013-6-3,62.0,54.4,48.0,55.0,44.2,39.0,94,70,46,27.17,27.17,32,16,39,0.14
2013-6-4,56.0,49.5,43.0,43.0,41.0,38.0,88,73,61,27.17,27.17,14,5,17,0.01
2013-6-5,71.0,55.9,38.0,46.0,41.4,37.0,97,64,30,27.17,27.17,9,2,12,0.00
2013-6-6,80.0,64.8,47.0,53.0,48.9,44.0,92,60,28,27.17,27.17,13,4,15,0.00
2013-6-7,86.0,69.2,52.0,58.0,50.7,39.0,94,58,20,27.17,27.17,15,4,22,0.00
2013-6-8,81.0,70.2,61.0,51.0,46.5,38.0,70,45,22,27.17,27.17,20,9,24,0.00
2013-6-9,84.0,69.7,52.0,56.0,49.7,45.0,87,53,29,27.17,27.17,10,4,15,0.00
2013-6-10,80.0,68.0,54.0,59.0,50.8,45.0,83,57,31,27.17,27.17,14,6,17,0.09
2013-6-11,81.0,67.7,59.0,62.0,57.3,53.0,88,71,52,27.17,27.17,21,4,26,0.09
2013-6-13,62.0,57.9,55.0,56.0,52.9,51.0,93,84,70,27.17,27.17,18,13,26,0.63
2013-6-14,69.0,60.8,50.0,52.0,44.5,37.0,90,59,31,27.17,27.17,23,10,36,0.03
2013-6-15,80.0,64.8,44.0,45.0,41.1,34.0,90,48,21,27.17,27.17,10,3,12,0.00
2013-6-16,78.0,67.0,49.0,50.0,47.6,42.0,91,53,33,27.17,27.17,13,5,18,0.00
2013-6-17,81.0,69.6,54.0,57.0,52.8,49.0,88,57,39,27.17,27.17,14,6,18,0.00
2013-6-18,89.0,73.3,58.0,61.0,54.4,45.0,88,55,24,27.17,27.17,13,4,16,0.00
2013-6-19,88.0,72.9,58.0,59.0,52.4,37.0,76,50,34,27.17,27.17,22,7,29,0.00
2013-6-20,76.0,65.9,53.0,39.0,34.6,31.0,51,32,19,27.17,27.17,13,8,16,0.00
2013-6-22,70.0,61.8,55.0,54.0,50.9,46.0,89,68,53,27.17,27.17,22,6,25,0.11
2013-6-23,79.0,64.5,47.0,51.0,47.4,43.0,93,59,29,27.17,27.17,12,5,17,0.02
2013-6-24,88.0,70.7,54.0,58.0,51.8,44.0,87,55,22,27.17,27.17,28,4,32,0.00
2013-6-25,86.0,75.6,63.0,57.0,48.3,37.0,78,41,18,27.17,27.17,17,6,21,0.00
2013-6-26,86.0,76.0,64.0,60.0,51.8,47.0,82,46,26,27.17,27.17,20,5,23,0.14
2013-6-27,89.0,74.5,59.0,62.0,56.7,51.0,91,59,28,27.17,27.17,14,4,17,0.13
2013-6-28,92.0,76.8,58.0,60.0,55.1,49.0,88,52,24,27.17,27.17,9,3,12,0.00
2013-6-29,89.0,75.9,60.0,63.0,57.6,54.0,90,57,33,27.17,27.17,20,5,33,0.08
2013-6-30,89.0,75.9,60.0,64.0,59.5,55.0,95,61,33,27.17,27.17,13,4,15,0.08
2013-7-1,91.0,78.5,61.0,63.0,57.1,51.0,87,51,26,27.17,27.17,10,4,12,0.00
2013-7-2,94.0,78.7,61.0,61.0,55.1,45.0,85,50,19,27.17,27.17,8,3,10,0.00
2013-7-3,98.0,85.0,63.0,62.0,52.2,41.0,80,37,14,27.17,27.17,17,6,24,0.00
2013-7-4,91.0,78.1,66.0,67.0,60.9,56.0,82,58,32,27.17,27.17,21,5,28,0.16
2013-7-5,80.0,71.8,62.0,64.0,59.7,56.0,94,68,45,27.17,27.17,16,4,18,0.17
2013-7-6,83.0,70.7,60.0,60.0,57.1,52.0,92,66,35,27.17,27.17,14,4,20,0.01
2013-7-7,83.0,70.3,59.0,61.0,57.2,50.0,92,66,37,27.17,27.17,16,4,32,0.20
2013-7-8,91.0,70.1,60.0,63.0,57.1,-99.9,91,68,33,27.17,27.17,32,2,43,0.46
2013-7-9,82.0,72.8,61.0,63.0,57.0,50.0,92,62,36,27.17,27.17,12,5,15,0.01
2013-7-10,97.0,76.2,58.0,60.0,49.0,-99.9,88,48,13,27.17,27.17,8,4,10,0.00
2013-7-11,95.0,83.5,66.0,59.0,50.3,43.0,67,34,18,27.17,27.17,17,7,23,0.00
2013-7-12,87.0,73.6,67.0,60.0,54.5,50.0,73,53,31,27.17,27.17,12,4,16,0.00
2013-7-13,87.0,76.9,66.0,62.0,57.6,54.0,79,54,34,27.17,27.17,18,8,23,0.05
2013-7-14,86.0,72.9,61.0,58.0,53.3,47.0,77,52,34,27.17,27.17,15,8,18,0.05
2013-7-15,99.0,78.5,59.0,62.0,52.2,27.0,87,49,8,27.17,27.17,10,4,12,0.00
2013-7-16,82.0,66.7,62.0,57.0,51.7,46.0,77,59,31,27.17,27.17,20,6,28,0.00
2013-7-17,82.0,69.3,60.0,65.0,59.3,56.0,91,72,48,27.17,27.17,9,3,13,0.01
2013-7-18,94.0,78.9,62.0,61.0,50.0,28.0,85,46,10,27.17,27.17,12,6,17,0.01
2013-7-19,93.0,82.9,65.0,56.0,46.3,31.0,64,30,12,27.17,27.17,10,4,13,0.00
2013-7-20,91.0,77.7,59.0,55.0,46.4,-99.9,71,37,17,27.17,27.17,9,4,13,0.00
2013-7-21,94.0,78.7,59.0,52.0,44.1,28.0,71,35,10,27.17,27.17,13,7,17,0.00
2013-7-22,95.0,77.7,61.0,56.0,49.1,26.0,74,41,9,27.17,27.17,14,5,21,0.00
2013-7-23,92.0,76.7,58.0,57.0,50.1,38.0,71,43,15,27.17,27.17,14,5,22,0.00
2013-7-24,94.0,80.0,63.0,58.0,50.4,43.0,73,40,17,27.17,27.17,13,5,20,0.00
2013-7-25,84.0,74.5,64.0,57.0,54.7,52.0,76,52,34,27.17,27.17,21,8,30,0.01
2013-7-26,86.0,71.5,58.0,55.0,52.3,49.0,75,53,32,27.17,27.17,13,7,18,0.00
2013-7-27,89.0,74.3,59.0,55.0,50.7,44.0,83,47,22,27.17,27.17,13,3,16,0.02
2013-7-28,80.0,71.4,62.0,58.0,54.3,51.0,81,56,39,27.17,27.17,14,5,16,0.05
2013-7-29,76.0,66.7,59.0,57.0,54.0,51.0,87,65,48,27.17,27.17,15,6,18,0.05
2013-7-30,79.0,68.2,57.0,61.0,55.5,53.0,92,66,44,27.17,27.17,10,4,14,0.17
2013-7-31,90.0,71.1,53.0,60.0,51.8,41.0,95,59,18,27.17,27.17,8,3,12,0.15
2013-8-1,83.0,73.9,64.0,57.0,54.1,52.0,74,51,37,27.17,27.17,13,6,17,0.00
2013-8-6,87.0,81.3,71.0,52.0,48.0,42.0,46,32,21,27.17,27.17,13,7,20,0.72
2013-8-7,88.0,72.0,54.0,55.0,50.3,44.0,84,50,22,27.17,27.17,18,4,25,0.54
2013-8-8,83.0,69.9,54.0,56.0,53.7,51.0,92,60,35,27.17,27.17,14,5,20,0.00
2013-8-9,79.0,67.4,61.0,63.0,56.3,51.0,87,69,44,27.17,27.17,13,5,18,0.26
2013-8-10,84.0,69.6,57.0,61.0,57.9,48.0,96,71,33,27.17,27.17,9,2,14,0.01
2013-8-11,87.0,75.8,56.0,57.0,52.8,47.0,84,47,27,27.17,27.17,12,3,14,0.00
2013-9-22,73.0,67.7,58.0,48.0,45.9,44.0,63,46,36,27.17,27.17,15,5,18,0.00
2013-9-23,72.0,62.9,52.0,49.0,42.0,34.0,75,50,25,27.17,27.17,23,8,25,0.00
2013-9-24,77.0,59.9,41.0,47.0,42.3,39.0,93,57,26,27.17,27.17,15,3,17,0.00
2013-9-25,54.0,50.7,49.0,50.0,46.7,43.0,96,86,65,27.17,27.17,8,4,12,0.14
2013-9-26,50.0,46.4,42.0,47.0,41.0,38.0,96,82,68,27.17,27.17,12,5,15,0.24
2013-9-27,55.0,46.3,42.0,43.0,40.5,39.0,96,81,56,27.17,27.17,10,5,15,0.01
2013-9-28,67.0,53.3,42.0,42.0,39.9,38.0,86,64,38,27.17,27.17,17,11,22,0.00
2013-10-18,57.0,44.2,34.0,36.0,33.8,31.0,92,69,39,27.17,27.17,0,0,0,0.02
2013-10-19,61.0,46.3,39.0,37.0,29.9,-99.9,73,57,38,27.17,27.17,10,0,14,0.00
2013-10-20,55.0,49.4,43.0,41.0,37.6,35.0,84,65,48,27.17,27.17,3,0,8,0.00
2013-10-21,62.0,50.5,44.0,42.0,39.6,37.0,82,68,43,27.17,27.17,9,0,14,0.00
2013-10-22,66.0,51.7,37.0,44.0,40.8,35.0,94,70,41,27.17,27.17,0,0,0,0.00
2013-10-23,59.0,46.5,34.0,44.0,39.7,33.0,97,79,56,27.17,27.17,0,0,0,0.00
2013-10-24,58.0,42.8,33.0,45.0,38.9,32.0,97,87,60,27.17,27.17,0,0,0,0.00